Location: Unspecified
(0.0000°N, 0.0000°E)
Time: 13:19:33
(UTC+01:00)

Iridium 15 - Visible Passes

Search period start: 08 February 2016 00:00
Search period end: 18 February 2016 00:00
Orbit: 776 x 779 km, 86.4° (Epoch: 07 February)

Date Brightness Start Highest point End Pass type
(mag) Time Alt. Az. Time Alt. Az. Time Alt. Az.
08 Feb 8.4 06:16:59 10° SE 06:21:19 27° E 06:25:38 10° NNE visible
09 Feb 9.2 05:46:05 10° ESE 05:47:52 12° E 05:49:39 10° ENE visible
09 Feb 9.2 19:59:22 10° WNW 20:01:42 13° W 20:04:03 10° WSW visible
11 Feb 7.4 06:16:27 10° SSE 06:21:23 43° E 06:26:17 10° NNE visible
12 Feb 8.7 05:44:14 10° SE 05:47:56 20° E 05:51:36 10° NE visible
14 Feb 6.3 06:16:15 10° S 06:21:27 71° E 06:26:37 10° N visible
15 Feb 7.9 05:43:24 10° SSE 05:48:00 31° E 05:52:33 10° NNE visible
16 Feb 9.0 05:11:52 10° ESE 05:14:32 14° E 05:17:11 10° ENE visible
17 Feb 5.9 06:16:18 10° S 06:21:30 71° W 06:26:40 10° N visible
